Regional Weather Roundup
Issued by NWS

Home | Current Version | Previous Version | Graphics & Text | Print | Product List | Glossary On
Versions: 1 2 3 4 5 6 7 8 9 10 11 12 13 14 15 16 17 18 19 20 21 22 23 24 25 26 27 28 29 30 31 32 33 34 35 36 37 38 39 40 41 42 43 44 45 46 47 48 49 50
000
ASUS45 KCYS 301210
RWRWY

WYOMING REGIONAL WEATHER ROUNDUP
NATIONAL WEATHER SERVICE CHEYENNE WY
600 AM MDT TUE JUN 30 2015

NOTE:  "FAIR" INDICATES FEW OR NO CLOUDS BELOW 12,000 FEET
WITH NO SIGNIFICANT WEATHER AND/OR OBSTRUCTIONS TO VISIBILITY.

WYZ001-301300-
YELLOWSTONE NATIONAL PARK

CITY           SKY/WX    TMP DP  RH WIND       PRES   REMARKS
LK YELLOWSTONE   N/A     55  50  83 CALM      30.37F
6HR MIN TEMP:  55; 6HR MAX TEMP:  59;

W YELLOWSTONE  NOT AVBL

$$
WYZ002>013-054>058-071-098>099-301300-
NORTHERN WYOMING

CITY           SKY/WX    TMP DP  RH WIND       PRES   REMARKS
JACKSON        FAIR      54  52  94 CALM      30.29F
CODY           MOCLDY    72  54  53 NE8       30.09F
GREYBULL       FAIR      71  54  54 NE3       30.03S
6HR MIN TEMP:  70; 6HR MAX TEMP:  85; 6HR PCP: TRACE;

WORLAND        FAIR      70  52  52 NE6       30.05S
6HR MIN TEMP:  69; 6HR MAX TEMP:  79;

SHERIDAN       FAIR      63  55  75 SW5       30.00S
6HR MIN TEMP:  63; 6HR MAX TEMP:  76;

BUFFALO        FAIR      65  51  60 NW5       30.07S
6HR MIN TEMP:  65; 6HR MAX TEMP:  73;

GILLETTE       FAIR      65  56  72 S5        30.02F
6HR MIN TEMP:  64; 6HR MAX TEMP:  74;

HULETT         FAIR      72  54  53 S8        30.02F
NEWCASTLE      FAIR      63  54  72 NE5       30.06F

$$
WYZ014>020-022>026-101>103-301300-
CENTRAL WYOMING

CITY           SKY/WX    TMP DP  RH WIND       PRES   REMARKS
BIG PINEY      FAIR      58  47  66 NW7       30.31S
6HR MIN TEMP:  58; 6HR MAX TEMP:  72;

PINEDALE       FAIR      59  46  63 NW5       30.32R
DUBOIS         FAIR      54  46  76 W12       30.31S
LANDER         FAIR      69  45  41 SW13      30.17F
6HR MIN TEMP:  66; 6HR MAX TEMP:  75;

RIVERTON       FAIR      69  48  47 NW8       30.16F
6HR MIN TEMP:  68; 6HR MAX TEMP:  76;

CASPER         FAIR      64  43  46 SW7       30.14F
6HR MIN TEMP:  55; 6HR MAX TEMP:  65;

DOUGLAS        FAIR      55  52  89 CALM      30.13S
6HR MIN TEMP:  54; 6HR MAX TEMP:  65;


$$
WYZ021-027>030-104>119-301300-
SOUTHERN WYOMING

CITY           SKY/WX    TMP DP  RH WIND       PRES   REMARKS
EVANSTON       FAIR      63  44  50 S5        30.31S
6HR MIN TEMP:  57; 6HR MAX TEMP:  72;

KEMMERER       FAIR      61  43  51 N12       30.32F
FORT BRIDGER   SUNNY     64  43  45 W6        30.34R
ROCK SPRINGS   FAIR      61  40  45 E7        30.27R
6HR MIN TEMP:  61; 6HR MAX TEMP:  72;

DIXON          FAIR      56  42  59 CALM      30.29S
RAWLINS        FAIR      56  44  64 NW5       30.29R
6HR MIN TEMP:  53; 6HR MAX TEMP:  64;

SARATOGA       FAIR      55  45  67 CALM      30.30S
LARAMIE        FAIR      50  45  83 S6        30.32R
6HR MIN TEMP:  48; 6HR MAX TEMP:  58;

CHEYENNE       FAIR      57  45  64 W10       30.22S
6HR MIN TEMP:  56; 6HR MAX TEMP:  61;

TORRINGTON     FAIR      57  53  86 CALM      30.07S
6HR MIN TEMP:  56; 6HR MAX TEMP:  67;

PINE BLUFFS    FAIR      52  50  93 SW3       30.16S

$$



USA.gov is the U.S. government's official web portal to all federal, state and local government web resources and services.